owner,sensor,date,latitude,longitude,air_pressure(mBar),qcFlag 
TABS,ioos:station:wmo:42046:1,2011-01-01T00:00:00Z,27.8903,-94.0367,1007.56,11111222 
TABS,ioos:station:wmo:42046:1,2011-01-01T00:30:00Z,27.8903,-94.0367,1007.52,11111222 
TABS,ioos:station:wmo:42046:1,2011-01-01T01:00:00Z,27.8903,-94.0367,1007.71,11111222 
TABS,ioos:station:wmo:42046:1,2011-01-01T01:30:00Z,27.8903,-94.0367,1007.92,11111222 
TABS,ioos:station:wmo:42046:1,2011-01-01T02:00:00Z,27.8903,-94.0367,1008.1,11111222 
TABS,ioos:station:wmo:42046:1,2011-01-01T02:30:00Z,27.8903,-94.0367,1008.1,11111222 
TABS,ioos:station:wmo:42046:1,2011-01-01T03:00:00Z,27.8903,-94.0367,1008.52,11111222 
TABS,ioos:station:wmo:42046:1,2011-01-01T03:30:00Z,27.8903,-94.0367,1008.94,11111222 
TABS,ioos:station:wmo:42046:1,2011-01-01T04:00:00Z,27.8903,-94.0367,1009.19,11111222 
TABS,ioos:station:wmo:42046:1,2011-01-01T04:30:00Z,27.8903,-94.0367,1009.24,11111222 
TABS,ioos:station:wmo:42046:1,2011-01-01T05:00:00Z,27.8903,-94.0367,1009.12,11111222 
TABS,ioos:station:wmo:42046:1,2011-01-01T05:30:00Z,27.8903,-94.0367,1009.28,11111222 
TABS,ioos:station:wmo:42046:1,2011-01-01T06:00:00Z,27.8903,-94.0367,1009.31,11111222 
TABS,ioos:station:wmo:42046:1,2011-01-01T06:30:00Z,27.8903,-94.0367,1009.24,11111222 
TABS,ioos:station:wmo:42046:1,2011-01-01T07:00:00Z,27.8903,-94.0367,1009.39,11111222 
TABS,ioos:station:wmo:42046:1,2011-01-01T07:30:00Z,27.8903,-94.0367,1009.44,11111222 
TABS,ioos:station:wmo:42046:1,2011-01-01T08:00:00Z,27.8903,-94.0367,1009.59,11111222 
TABS,ioos:station:wmo:42046:1,2011-01-01T08:30:00Z,27.8903,-94.0367,1009.55,11111222 
TABS,ioos:station:wmo:42046:1,2011-01-01T09:00:00Z,27.8903,-94.0367,1009.48,11111222 
TABS,ioos:station:wmo:42046:1,2011-01-01T09:30:00Z,27.8903,-94.0367,1010.24,11111222 
TABS,ioos:station:wmo:42046:1,2011-01-01T10:00:00Z,27.8903,-94.0367,1010.02,11111222 
TABS,ioos:station:wmo:42046:1,2011-01-01T10:30:00Z,27.8903,-94.0367,1010.02,11111222 
TABS,ioos:station:wmo:42046:1,2011-01-01T11:00:00Z,27.8903,-94.0367,1010.38,11111222 
TABS,ioos:station:wmo:42046:1,2011-01-01T11:30:00Z,27.8903,-94.0367,1010.58,11111222 
TABS,ioos:station:wmo:42046:1,2011-01-01T12:00:00Z,27.8903,-94.0367,1011.76,11111222 
TABS,ioos:station:wmo:42046:1,2011-01-01T12:30:00Z,27.8903,-94.0367,1012.31,11111222 
TABS,ioos:station:wmo:42046:1,2011-01-01T13:00:00Z,27.8903,-94.0367,1012.57,11111222 
TABS,ioos:station:wmo:42046:1,2011-01-01T13:30:00Z,27.8903,-94.0367,1013.22,11111222 
TABS,ioos:station:wmo:42046:1,2011-01-01T14:00:00Z,27.8903,-94.0367,1014.49,11111222 
TABS,ioos:station:wmo:42046:1,2011-01-01T14:30:00Z,27.8903,-94.0367,1014.42,11111222 
TABS,ioos:station:wmo:42046:1,2011-01-01T15:00:00Z,27.8903,-94.0367,1015.17,11111222 
TABS,ioos:station:wmo:42046:1,2011-01-01T15:30:00Z,27.8903,-94.0367,1016.18,11111222 
TABS,ioos:station:wmo:42046:1,2011-01-01T16:00:00Z,27.8903,-94.0367,1016.59,11111222 
TABS,ioos:station:wmo:42046:1,2011-01-01T16:30:00Z,27.8903,-94.0367,1016.48,11111222 
TABS,ioos:station:wmo:42046:1,2011-01-01T17:00:00Z,27.8903,-94.0367,1016.81,11111222 
TABS,ioos:station:wmo:42046:1,2011-01-01T17:30:00Z,27.8903,-94.0367,1016.74,11111222 
TABS,ioos:station:wmo:42046:1,2011-01-01T18:00:00Z,27.8903,-94.0367,1016.49,11111222 
TABS,ioos:station:wmo:42046:1,2011-01-01T18:30:00Z,27.8903,-94.0367,1016.28,11111222 
TABS,ioos:station:wmo:42046:1,2011-01-01T19:00:00Z,27.8903,-94.0367,1015.96,11111222 
TABS,ioos:station:wmo:42046:1,2011-01-01T19:30:00Z,27.8903,-94.0367,1016.21,11111222 
TABS,ioos:station:wmo:42046:1,2011-01-01T20:00:00Z,27.8903,-94.0367,1016.2,11111222 
TABS,ioos:station:wmo:42046:1,2011-01-01T20:30:00Z,27.8903,-94.0367,1015.27,11111222 
TABS,ioos:station:wmo:42046:1,2011-01-01T21:00:00Z,27.8903,-94.0367,1016.63,11111222 
TABS,ioos:station:wmo:42046:1,2011-01-01T21:30:00Z,27.8903,-94.0367,1016.87,11111222 
TABS,ioos:station:wmo:42046:1,2011-01-01T22:00:00Z,27.8903,-94.0367,1017.66,11111222 
TABS,ioos:station:wmo:42046:1,2011-01-01T22:30:00Z,27.8903,-94.0367,1018.02,11111222 
TABS,ioos:station:wmo:42046:1,2011-01-01T23:00:00Z,27.8903,-94.0367,1018.11,11111222 
TABS,ioos:station:wmo:42046:1,2011-01-01T23:30:00Z,27.8903,-94.0367,1018.2,11111222 
TABS,ioos:station:wmo:42046:1,2011-01-02T00:00:00Z,27.8903,-94.0367,1019.03,11111222 
TABS,ioos:station:wmo:42046:1,2011-01-02T00:30:00Z,27.8903,-94.0367,1019.7,11111222 
TABS,ioos:station:wmo:42046:1,2011-01-02T01:00:00Z,27.8903,-94.0367,1019.2,11111222 
TABS,ioos:station:wmo:42046:1,2011-01-02T01:30:00Z,27.8903,-94.0367,1020.51,11111222 
TABS,ioos:station:wmo:42046:1,2011-01-02T02:00:00Z,27.8903,-94.0367,1020.59,11111222 
TABS,ioos:station:wmo:42046:1,2011-01-02T02:30:00Z,27.8903,-94.0367,1020.56,11111222 
TABS,ioos:station:wmo:42046:1,2011-01-02T03:00:00Z,27.8903,-94.0367,1021.22,11111222 
TABS,ioos:station:wmo:42046:1,2011-01-02T03:30:00Z,27.8903,-94.0367,1021.31,11111222 
TABS,ioos:station:wmo:42046:1,2011-01-02T04:00:00Z,27.8903,-94.0367,1021.72,11111222 
TABS,ioos:station:wmo:42046:1,2011-01-02T04:30:00Z,27.8903,-94.0367,1021.97,11111222 
TABS,ioos:station:wmo:42046:1,2011-01-02T05:00:00Z,27.8903,-94.0367,1021.83,11111222 
TABS,ioos:station:wmo:42046:1,2011-01-02T05:30:00Z,27.8903,-94.0367,1021.99,11111222 
TABS,ioos:station:wmo:42046:1,2011-01-02T06:00:00Z,27.8903,-94.0367,1021.65,11111222 
TABS,ioos:station:wmo:42046:1,2011-01-02T06:30:00Z,27.8903,-94.0367,1021.52,11111222 
TABS,ioos:station:wmo:42046:1,2011-01-02T07:00:00Z,27.8903,-94.0367,1021.89,11111222 
TABS,ioos:station:wmo:42046:1,2011-01-02T07:30:00Z,27.8903,-94.0367,1022.41,11111222 
TABS,ioos:station:wmo:42046:1,2011-01-02T08:00:00Z,27.8903,-94.0367,1022.04,11111222 
TABS,ioos:station:wmo:42046:1,2011-01-02T08:30:00Z,27.8903,-94.0367,1022.92,11111222 
TABS,ioos:station:wmo:42046:1,2011-01-02T09:00:00Z,27.8903,-94.0367,1022.99,11111222 
TABS,ioos:station:wmo:42046:1,2011-01-02T09:30:00Z,27.8903,-94.0367,1023.24,11111222 
TABS,ioos:station:wmo:42046:1,2011-01-02T10:00:00Z,27.8903,-94.0367,1023.26,11111222 
TABS,ioos:station:wmo:42046:1,2011-01-02T10:30:00Z,27.8903,-94.0367,1023.65,11111222 
TABS,ioos:station:wmo:42046:1,2011-01-02T11:00:00Z,27.8903,-94.0367,1024.02,11111222 
TABS,ioos:station:wmo:42046:1,2011-01-02T11:30:00Z,27.8903,-94.0367,1024.03,11111222 
TABS,ioos:station:wmo:42046:1,2011-01-02T12:00:00Z,27.8903,-94.0367,1023.96,11111222 
TABS,ioos:station:wmo:42046:1,2011-01-02T12:30:00Z,27.8903,-94.0367,1024.92,11111222 
TABS,ioos:station:wmo:42046:1,2011-01-02T13:00:00Z,27.8903,-94.0367,1025.43,11111222 
TABS,ioos:station:wmo:42046:1,2011-01-02T13:30:00Z,27.8903,-94.0367,1025.89,11111222 
TABS,ioos:station:wmo:42046:1,2011-01-02T14:00:00Z,27.8903,-94.0367,1026.42,11111222 
TABS,ioos:station:wmo:42046:1,2011-01-02T14:30:00Z,27.8903,-94.0367,1026.62,11111222 
TABS,ioos:station:wmo:42046:1,2011-01-02T15:00:00Z,27.8903,-94.0367,1026.83,11111222 
TABS,ioos:station:wmo:42046:1,2011-01-02T15:30:00Z,27.8903,-94.0367,1027.4,11111222 
TABS,ioos:station:wmo:42046:1,2011-01-02T16:00:00Z,27.8903,-94.0367,1027.55,11111222 
TABS,ioos:station:wmo:42046:1,2011-01-02T16:30:00Z,27.8903,-94.0367,1027.62,11111222 
TABS,ioos:station:wmo:42046:1,2011-01-02T17:00:00Z,27.8903,-94.0367,1027.48,11111222 
TABS,ioos:station:wmo:42046:1,2011-01-02T17:30:00Z,27.8903,-94.0367,1026.97,11111222 
TABS,ioos:station:wmo:42046:1,2011-01-02T18:00:00Z,27.8903,-94.0367,1026.36,11111222 
TABS,ioos:station:wmo:42046:1,2011-01-02T18:30:00Z,27.8903,-94.0367,1025.67,11111222 
TABS,ioos:station:wmo:42046:1,2011-01-02T19:00:00Z,27.8903,-94.0367,1025.16,11111222 
TABS,ioos:station:wmo:42046:1,2011-01-02T19:30:00Z,27.8903,-94.0367,1025.23,11111222 
TABS,ioos:station:wmo:42046:1,2011-01-02T20:00:00Z,27.8903,-94.0367,1024.96,11111222 
TABS,ioos:station:wmo:42046:1,2011-01-02T20:30:00Z,27.8903,-94.0367,1024.78,11111222 
TABS,ioos:station:wmo:42046:1,2011-01-02T21:00:00Z,27.8903,-94.0367,1024.71,11111222 
TABS,ioos:station:wmo:42046:1,2011-01-02T21:30:00Z,27.8903,-94.0367,1025.02,11111222 
TABS,ioos:station:wmo:42046:1,2011-01-02T22:00:00Z,27.8903,-94.0367,1025.13,11111222 
TABS,ioos:station:wmo:42046:1,2011-01-02T22:30:00Z,27.8903,-94.0367,1025.1,11111222 
TABS,ioos:station:wmo:42046:1,2011-01-02T23:00:00Z,27.8903,-94.0367,1025.21,11111222 
TABS,ioos:station:wmo:42046:1,2011-01-02T23:30:00Z,27.8903,-94.0367,1025.06,11111222 
TABS,ioos:station:wmo:42046:1,2011-01-03T00:00:00Z,27.8903,-94.0367,1024.99,11111222 
TABS,ioos:station:wmo:42046:1,2011-01-03T00:30:00Z,27.8903,-94.0367,1025.27,11111222 
TABS,ioos:station:wmo:42046:1,2011-01-03T01:00:00Z,27.8903,-94.0367,1025.07,11111222 
TABS,ioos:station:wmo:42046:1,2011-01-03T01:30:00Z,27.8903,-94.0367,1025.03,11111222 
TABS,ioos:station:wmo:42046:1,2011-01-03T02:00:00Z,27.8903,-94.0367,1025.07,11111222 
TABS,ioos:station:wmo:42046:1,2011-01-03T02:30:00Z,27.8903,-94.0367,1025.09,11111222 
TABS,ioos:station:wmo:42046:1,2011-01-03T03:00:00Z,27.8903,-94.0367,1025.37,11111222 
TABS,ioos:station:wmo:42046:1,2011-01-03T03:30:00Z,27.8903,-94.0367,1025.13,11111222 
TABS,ioos:station:wmo:42046:1,2011-01-03T04:00:00Z,27.8903,-94.0367,1025.64,11111222 
TABS,ioos:station:wmo:42046:1,2011-01-03T04:30:00Z,27.8903,-94.0367,1025.56,11111222 
TABS,ioos:station:wmo:42046:1,2011-01-03T05:00:00Z,27.8903,-94.0367,1025.49,11111222 
TABS,ioos:station:wmo:42046:1,2011-01-03T05:30:00Z,27.8903,-94.0367,1025.34,11111222 
TABS,ioos:station:wmo:42046:1,2011-01-03T06:00:00Z,27.8903,-94.0367,1025.0,11111222 
TABS,ioos:station:wmo:42046:1,2011-01-03T06:30:00Z,27.8903,-94.0367,1024.89,11111222 
TABS,ioos:station:wmo:42046:1,2011-01-03T07:00:00Z,27.8903,-94.0367,1024.71,11111222 
TABS,ioos:station:wmo:42046:1,2011-01-03T07:30:00Z,27.8903,-94.0367,1024.48,11111222 
TABS,ioos:station:wmo:42046:1,2011-01-03T08:00:00Z,27.8903,-94.0367,1023.96,11111222 
TABS,ioos:station:wmo:42046:1,2011-01-03T08:30:00Z,27.8903,-94.0367,1023.86,11111222 
TABS,ioos:station:wmo:42046:1,2011-01-03T09:00:00Z,27.8903,-94.0367,1023.89,11111222 
TABS,ioos:station:wmo:42046:1,2011-01-03T09:30:00Z,27.8903,-94.0367,1023.82,11111222 
TABS,ioos:station:wmo:42046:1,2011-01-03T10:00:00Z,27.8903,-94.0367,1023.66,11111222 
TABS,ioos:station:wmo:42046:1,2011-01-03T10:30:00Z,27.8903,-94.0367,1023.4,11111222 
TABS,ioos:station:wmo:42046:1,2011-01-03T11:00:00Z,27.8903,-94.0367,1023.44,11111222 
TABS,ioos:station:wmo:42046:1,2011-01-03T11:30:00Z,27.8903,-94.0367,1023.84,11111222 
TABS,ioos:station:wmo:42046:1,2011-01-03T12:00:00Z,27.8903,-94.0367,1023.48,11111222 
TABS,ioos:station:wmo:42046:1,2011-01-03T12:30:00Z,27.8903,-94.0367,1023.74,11111222 
TABS,ioos:station:wmo:42046:1,2011-01-03T13:00:00Z,27.8903,-94.0367,1023.73,11111222 
TABS,ioos:station:wmo:42046:1,2011-01-03T13:30:00Z,27.8903,-94.0367,1023.68,11111222 
TABS,ioos:station:wmo:42046:1,2011-01-03T14:00:00Z,27.8903,-94.0367,1023.76,11111222 
TABS,ioos:station:wmo:42046:1,2011-01-03T14:30:00Z,27.8903,-94.0367,1024.0,11111222 
TABS,ioos:station:wmo:42046:1,2011-01-03T15:00:00Z,27.8903,-94.0367,1024.45,11111222 
TABS,ioos:station:wmo:42046:1,2011-01-03T15:30:00Z,27.8903,-94.0367,1024.78,11111222 
TABS,ioos:station:wmo:42046:1,2011-01-03T16:00:00Z,27.8903,-94.0367,1024.62,11111222 
TABS,ioos:station:wmo:42046:1,2011-01-03T16:30:00Z,27.8903,-94.0367,1024.37,11111222 
TABS,ioos:station:wmo:42046:1,2011-01-03T17:00:00Z,27.8903,-94.0367,1024.09,11111222 
TABS,ioos:station:wmo:42046:1,2011-01-03T17:30:00Z,27.8903,-94.0367,1023.77,11111222 
TABS,ioos:station:wmo:42046:1,2011-01-03T18:00:00Z,27.8903,-94.0367,1023.27,11111222 
TABS,ioos:station:wmo:42046:1,2011-01-03T18:30:00Z,27.8903,-94.0367,1022.62,11111222 
TABS,ioos:station:wmo:42046:1,2011-01-03T19:00:00Z,27.8903,-94.0367,1021.9,11111222 
TABS,ioos:station:wmo:42046:1,2011-01-03T19:30:00Z,27.8903,-94.0367,1021.31,11111222 
TABS,ioos:station:wmo:42046:1,2011-01-03T20:00:00Z,27.8903,-94.0367,1021.05,11111222 
TABS,ioos:station:wmo:42046:1,2011-01-03T20:30:00Z,27.8903,-94.0367,1020.81,11111222 
TABS,ioos:station:wmo:42046:1,2011-01-03T21:00:00Z,27.8903,-94.0367,1020.7,11111222 
TABS,ioos:station:wmo:42046:1,2011-01-03T21:30:00Z,27.8903,-94.0367,1020.44,11111222 
TABS,ioos:station:wmo:42046:1,2011-01-03T22:00:00Z,27.8903,-94.0367,1020.47,11111222 
TABS,ioos:station:wmo:42046:1,2011-01-03T22:30:00Z,27.8903,-94.0367,1020.13,11111222 
TABS,ioos:station:wmo:42046:1,2011-01-03T23:00:00Z,27.8903,-94.0367,1020.15,11111222 
TABS,ioos:station:wmo:42046:1,2011-01-03T23:30:00Z,27.8903,-94.0367,1019.87,11111222 
TABS,ioos:station:wmo:42046:1,2011-01-04T00:00:00Z,27.8903,-94.0367,1019.96,11111222 
TABS,ioos:station:wmo:42046:1,2011-01-04T00:30:00Z,27.8903,-94.0367,1019.97,11111222 
TABS,ioos:station:wmo:42046:1,2011-01-04T01:00:00Z,27.8903,-94.0367,1019.97,11111222 
TABS,ioos:station:wmo:42046:1,2011-01-04T01:30:00Z,27.8903,-94.0367,1020.04,11111222 
TABS,ioos:station:wmo:42046:1,2011-01-04T02:00:00Z,27.8903,-94.0367,1020.09,11111222 
TABS,ioos:station:wmo:42046:1,2011-01-04T02:30:00Z,27.8903,-94.0367,1019.94,11111222 
TABS,ioos:station:wmo:42046:1,2011-01-04T03:00:00Z,27.8903,-94.0367,1019.7,11111222 
TABS,ioos:station:wmo:42046:1,2011-01-04T03:30:00Z,27.8903,-94.0367,1019.75,11111222 
TABS,ioos:station:wmo:42046:1,2011-01-04T04:00:00Z,27.8903,-94.0367,1019.96,11111222 
TABS,ioos:station:wmo:42046:1,2011-01-04T04:30:00Z,27.8903,-94.0367,1019.88,11111222 
TABS,ioos:station:wmo:42046:1,2011-01-04T05:00:00Z,27.8903,-94.0367,1019.98,11111222 
TABS,ioos:station:wmo:42046:1,2011-01-04T05:30:00Z,27.8903,-94.0367,1019.62,11111222 
TABS,ioos:station:wmo:42046:1,2011-01-04T06:00:00Z,27.8903,-94.0367,1019.61,11111222 
TABS,ioos:station:wmo:42046:1,2011-01-04T06:30:00Z,27.8903,-94.0367,1019.58,11111222 
TABS,ioos:station:wmo:42046:1,2011-01-04T07:00:00Z,27.8903,-94.0367,1019.36,11111222 
TABS,ioos:station:wmo:42046:1,2011-01-04T07:30:00Z,27.8903,-94.0367,1019.26,11111222 
TABS,ioos:station:wmo:42046:1,2011-01-04T08:00:00Z,27.8903,-94.0367,1019.25,11111222 
TABS,ioos:station:wmo:42046:1,2011-01-04T08:30:00Z,27.8903,-94.0367,1019.15,11111222 
TABS,ioos:station:wmo:42046:1,2011-01-04T09:00:00Z,27.8903,-94.0367,1018.9,11111222 
TABS,ioos:station:wmo:42046:1,2011-01-04T09:30:00Z,27.8903,-94.0367,1018.68,11111222 
TABS,ioos:station:wmo:42046:1,2011-01-04T10:00:00Z,27.8903,-94.0367,1018.3,11111222 
TABS,ioos:station:wmo:42046:1,2011-01-04T10:30:00Z,27.8903,-94.0367,1018.07,11111222 
TABS,ioos:station:wmo:42046:1,2011-01-04T11:00:00Z,27.8903,-94.0367,1018.32,11111222 
TABS,ioos:station:wmo:42046:1,2011-01-04T11:30:00Z,27.8903,-94.0367,1018.42,11111222 
TABS,ioos:station:wmo:42046:1,2011-01-04T12:00:00Z,27.8903,-94.0367,1018.52,11111222 
TABS,ioos:station:wmo:42046:1,2011-01-04T12:30:00Z,27.8903,-94.0367,1018.74,11111222 
TABS,ioos:station:wmo:42046:1,2011-01-04T13:00:00Z,27.8903,-94.0367,1019.24,11111222 
TABS,ioos:station:wmo:42046:1,2011-01-04T13:30:00Z,27.8903,-94.0367,1019.69,11111222 
TABS,ioos:station:wmo:42046:1,2011-01-04T14:00:00Z,27.8903,-94.0367,1019.88,11111222 
TABS,ioos:station:wmo:42046:1,2011-01-04T14:30:00Z,27.8903,-94.0367,1019.72,11111222 
TABS,ioos:station:wmo:42046:1,2011-01-04T15:00:00Z,27.8903,-94.0367,1019.83,11111222 
TABS,ioos:station:wmo:42046:1,2011-01-04T15:30:00Z,27.8903,-94.0367,1020.59,11111222 
TABS,ioos:station:wmo:42046:1,2011-01-04T16:00:00Z,27.8903,-94.0367,1020.77,11111222 
TABS,ioos:station:wmo:42046:1,2011-01-04T16:30:00Z,27.8903,-94.0367,1020.7,11111222 
TABS,ioos:station:wmo:42046:1,2011-01-04T17:00:00Z,27.8903,-94.0367,1020.37,11111222 
TABS,ioos:station:wmo:42046:1,2011-01-04T17:30:00Z,27.8903,-94.0367,1020.11,11111222 
TABS,ioos:station:wmo:42046:1,2011-01-04T18:00:00Z,27.8903,-94.0367,1019.64,11111222 
TABS,ioos:station:wmo:42046:1,2011-01-04T18:30:00Z,27.8903,-94.0367,1018.83,11111222 
TABS,ioos:station:wmo:42046:1,2011-01-04T19:00:00Z,27.8903,-94.0367,1018.47,11111222 
TABS,ioos:station:wmo:42046:1,2011-01-04T19:30:00Z,27.8903,-94.0367,1018.06,11111222 
TABS,ioos:station:wmo:42046:1,2011-01-04T20:00:00Z,27.8903,-94.0367,1017.44,11111222 
TABS,ioos:station:wmo:42046:1,2011-01-04T20:30:00Z,27.8903,-94.0367,1017.32,11111222 
TABS,ioos:station:wmo:42046:1,2011-01-04T21:00:00Z,27.8903,-94.0367,1017.28,11111222 
TABS,ioos:station:wmo:42046:1,2011-01-04T21:30:00Z,27.8903,-94.0367,1017.33,11111222 
TABS,ioos:station:wmo:42046:1,2011-01-04T22:00:00Z,27.8903,-94.0367,1016.97,11111222 
TABS,ioos:station:wmo:42046:1,2011-01-04T22:30:00Z,27.8903,-94.0367,1016.88,11111222 
TABS,ioos:station:wmo:42046:1,2011-01-04T23:00:00Z,27.8903,-94.0367,1016.78,11111222 
TABS,ioos:station:wmo:42046:1,2011-01-04T23:30:00Z,27.8903,-94.0367,1016.63,11111222 
TABS,ioos:station:wmo:42046:1,2011-01-05T00:00:00Z,27.8903,-94.0367,1016.63,11111222 
TABS,ioos:station:wmo:42046:1,2011-01-05T00:30:00Z,27.8903,-94.0367,1016.6,11111222 
TABS,ioos:station:wmo:42046:1,2011-01-05T01:00:00Z,27.8903,-94.0367,1016.53,11111222 
TABS,ioos:station:wmo:42046:1,2011-01-05T01:30:00Z,27.8903,-94.0367,1016.46,11111222 
TABS,ioos:station:wmo:42046:1,2011-01-05T02:00:00Z,27.8903,-94.0367,1016.64,11111222 
TABS,ioos:station:wmo:42046:1,2011-01-05T02:30:00Z,27.8903,-94.0367,1016.94,11111222 
TABS,ioos:station:wmo:42046:1,2011-01-05T03:00:00Z,27.8903,-94.0367,1016.97,11111222 
TABS,ioos:station:wmo:42046:1,2011-01-05T03:30:00Z,27.8903,-94.0367,1017.0,11111222 
TABS,ioos:station:wmo:42046:1,2011-01-05T04:00:00Z,27.8903,-94.0367,1017.09,11111222 
TABS,ioos:station:wmo:42046:1,2011-01-05T04:30:00Z,27.8903,-94.0367,1016.98,11111222 
TABS,ioos:station:wmo:42046:1,2011-01-05T05:00:00Z,27.8903,-94.0367,1016.68,11111222 
TABS,ioos:station:wmo:42046:1,2011-01-05T05:30:00Z,27.8903,-94.0367,1016.58,11111222 
TABS,ioos:station:wmo:42046:1,2011-01-05T06:00:00Z,27.8903,-94.0367,1016.46,11111222 
TABS,ioos:station:wmo:42046:1,2011-01-05T06:30:00Z,27.8903,-94.0367,1016.24,11111222 
TABS,ioos:station:wmo:42046:1,2011-01-05T07:00:00Z,27.8903,-94.0367,1015.95,11111222 
TABS,ioos:station:wmo:42046:1,2011-01-05T07:30:00Z,27.8903,-94.0367,1015.76,11111222 
TABS,ioos:station:wmo:42046:1,2011-01-05T08:00:00Z,27.8903,-94.0367,1015.58,11111222 
TABS,ioos:station:wmo:42046:1,2011-01-05T08:30:00Z,27.8903,-94.0367,1015.45,11111222 
TABS,ioos:station:wmo:42046:1,2011-01-05T09:00:00Z,27.8903,-94.0367,1015.27,11111222 
TABS,ioos:station:wmo:42046:1,2011-01-05T09:30:00Z,27.8903,-94.0367,1015.02,11111222 
TABS,ioos:station:wmo:42046:1,2011-01-05T10:00:00Z,27.8903,-94.0367,1014.81,11111222 
TABS,ioos:station:wmo:42046:1,2011-01-05T10:30:00Z,27.8903,-94.0367,1014.68,11111222 
TABS,ioos:station:wmo:42046:1,2011-01-05T11:00:00Z,27.8903,-94.0367,1014.73,11111222 
TABS,ioos:station:wmo:42046:1,2011-01-05T11:30:00Z,27.8903,-94.0367,1014.48,11111222 
TABS,ioos:station:wmo:42046:1,2011-01-05T12:00:00Z,27.8903,-94.0367,1014.51,11111222 
TABS,ioos:station:wmo:42046:1,2011-01-05T12:30:00Z,27.8903,-94.0367,1014.55,11111222 
TABS,ioos:station:wmo:42046:1,2011-01-05T13:00:00Z,27.8903,-94.0367,1015.03,11111222 
TABS,ioos:station:wmo:42046:1,2011-01-05T13:30:00Z,27.8903,-94.0367,1015.47,11111222 
TABS,ioos:station:wmo:42046:1,2011-01-05T14:00:00Z,27.8903,-94.0367,1015.78,11111222 
TABS,ioos:station:wmo:42046:1,2011-01-05T14:30:00Z,27.8903,-94.0367,1016.5,11111222 
TABS,ioos:station:wmo:42046:1,2011-01-05T15:00:00Z,27.8903,-94.0367,1016.6,11111222 
TABS,ioos:station:wmo:42046:1,2011-01-05T15:30:00Z,27.8903,-94.0367,1016.84,11111222 
TABS,ioos:station:wmo:42046:1,2011-01-05T16:00:00Z,27.8903,-94.0367,1016.73,11111222 
TABS,ioos:station:wmo:42046:1,2011-01-05T16:30:00Z,27.8903,-94.0367,1016.67,11111222 
TABS,ioos:station:wmo:42046:1,2011-01-05T17:00:00Z,27.8903,-94.0367,1016.57,11111222 
TABS,ioos:station:wmo:42046:1,2011-01-05T17:30:00Z,27.8903,-94.0367,1015.87,11111222 
TABS,ioos:station:wmo:42046:1,2011-01-05T18:00:00Z,27.8903,-94.0367,1015.79,11111222 
TABS,ioos:station:wmo:42046:1,2011-01-05T18:30:00Z,27.8903,-94.0367,1015.04,11111222 
TABS,ioos:station:wmo:42046:1,2011-01-05T19:00:00Z,27.8903,-94.0367,1014.6,11111222 
TABS,ioos:station:wmo:42046:1,2011-01-05T19:30:00Z,27.8903,-94.0367,1013.86,11111222 
TABS,ioos:station:wmo:42046:1,2011-01-05T20:00:00Z,27.8903,-94.0367,1013.48,11111222 
TABS,ioos:station:wmo:42046:1,2011-01-05T20:30:00Z,27.8903,-94.0367,1013.3,11111222 
TABS,ioos:station:wmo:42046:1,2011-01-05T21:00:00Z,27.8903,-94.0367,1013.06,11111222 
TABS,ioos:station:wmo:42046:1,2011-01-05T21:30:00Z,27.8903,-94.0367,1013.22,11111222 
TABS,ioos:station:wmo:42046:1,2011-01-05T22:00:00Z,27.8903,-94.0367,1013.34,11111222 
TABS,ioos:station:wmo:42046:1,2011-01-05T22:30:00Z,27.8903,-94.0367,1013.47,11111222 
TABS,ioos:station:wmo:42046:1,2011-01-05T23:00:00Z,27.8903,-94.0367,1013.87,11111222 
TABS,ioos:station:wmo:42046:1,2011-01-05T23:30:00Z,27.8903,-94.0367,1013.51,11111222 
TABS,ioos:station:wmo:42046:1,2011-01-06T00:00:00Z,27.8903,-94.0367,1013.5,11111222 
TABS,ioos:station:wmo:42046:1,2011-01-06T00:30:00Z,27.8903,-94.0367,1013.89,11111222 
TABS,ioos:station:wmo:42046:1,2011-01-06T01:00:00Z,27.8903,-94.0367,1013.82,11111222 
TABS,ioos:station:wmo:42046:1,2011-01-06T01:30:00Z,27.8903,-94.0367,1013.95,11111222 
TABS,ioos:station:wmo:42046:1,2011-01-06T02:00:00Z,27.8903,-94.0367,1014.54,11111222 
TABS,ioos:station:wmo:42046:1,2011-01-06T02:30:00Z,27.8903,-94.0367,1014.64,11111222 
TABS,ioos:station:wmo:42046:1,2011-01-06T03:00:00Z,27.8903,-94.0367,1015.23,11111222 
TABS,ioos:station:wmo:42046:1,2011-01-06T03:30:00Z,27.8903,-94.0367,1015.67,11111222 
TABS,ioos:station:wmo:42046:1,2011-01-06T04:00:00Z,27.8903,-94.0367,1015.65,11111222 
TABS,ioos:station:wmo:42046:1,2011-01-06T04:30:00Z,27.8903,-94.0367,1015.6,11111222 
TABS,ioos:station:wmo:42046:1,2011-01-06T05:00:00Z,27.8903,-94.0367,1015.81,11111222 
TABS,ioos:station:wmo:42046:1,2011-01-06T05:30:00Z,27.8903,-94.0367,1015.91,11111222 
TABS,ioos:station:wmo:42046:1,2011-01-06T06:00:00Z,27.8903,-94.0367,1015.73,11111222 
TABS,ioos:station:wmo:42046:1,2011-01-06T06:30:00Z,27.8903,-94.0367,1015.66,11111222 
TABS,ioos:station:wmo:42046:1,2011-01-06T07:00:00Z,27.8903,-94.0367,1015.8,11111222 
TABS,ioos:station:wmo:42046:1,2011-01-06T07:30:00Z,27.8903,-94.0367,1015.86,11111222 
TABS,ioos:station:wmo:42046:1,2011-01-06T08:00:00Z,27.8903,-94.0367,1015.79,11111222 
TABS,ioos:station:wmo:42046:1,2011-01-06T08:30:00Z,27.8903,-94.0367,1015.66,11111222 
TABS,ioos:station:wmo:42046:1,2011-01-06T09:00:00Z,27.8903,-94.0367,1015.56,11111222 
TABS,ioos:station:wmo:42046:1,2011-01-06T09:30:00Z,27.8903,-94.0367,1016.01,11111222 
TABS,ioos:station:wmo:42046:1,2011-01-06T10:00:00Z,27.8903,-94.0367,1015.74,11111222 
TABS,ioos:station:wmo:42046:1,2011-01-06T10:30:00Z,27.8903,-94.0367,1015.87,11111222 
TABS,ioos:station:wmo:42046:1,2011-01-06T11:00:00Z,27.8903,-94.0367,1016.13,11111222 
TABS,ioos:station:wmo:42046:1,2011-01-06T11:30:00Z,27.8903,-94.0367,1016.6,11111222 
TABS,ioos:station:wmo:42046:1,2011-01-06T12:00:00Z,27.8903,-94.0367,1016.63,11111222 
TABS,ioos:station:wmo:42046:1,2011-01-06T12:30:00Z,27.8903,-94.0367,1016.97,11111222 
TABS,ioos:station:wmo:42046:1,2011-01-06T13:00:00Z,27.8903,-94.0367,1017.03,11111222 
TABS,ioos:station:wmo:42046:1,2011-01-06T13:30:00Z,27.8903,-94.0367,1017.48,11111222 
TABS,ioos:station:wmo:42046:1,2011-01-06T14:00:00Z,27.8903,-94.0367,1018.19,11111222 
TABS,ioos:station:wmo:42046:1,2011-01-06T14:30:00Z,27.8903,-94.0367,1018.64,11111222 
TABS,ioos:station:wmo:42046:1,2011-01-06T15:00:00Z,27.8903,-94.0367,1019.21,11111222 
TABS,ioos:station:wmo:42046:1,2011-01-06T15:30:00Z,27.8903,-94.0367,1019.61,11111222 
TABS,ioos:station:wmo:42046:1,2011-01-06T16:00:00Z,27.8903,-94.0367,1019.73,11111222 
TABS,ioos:station:wmo:42046:1,2011-01-06T16:30:00Z,27.8903,-94.0367,1019.31,11111222 
TABS,ioos:station:wmo:42046:1,2011-01-06T17:00:00Z,27.8903,-94.0367,1019.1,11111222 
TABS,ioos:station:wmo:42046:1,2011-01-06T17:30:00Z,27.8903,-94.0367,1018.67,11111222 
TABS,ioos:station:wmo:42046:1,2011-01-06T18:00:00Z,27.8903,-94.0367,1018.54,11111222 
TABS,ioos:station:wmo:42046:1,2011-01-06T18:30:00Z,27.8903,-94.0367,1018.55,11111222 